TimePST,TemperatureF,Dew PointF,Humidity,Sea Level PressureIn,VisibilityMPH,Wind Direction,Wind SpeedMPH,Gust SpeedMPH,PrecipitationIn,Events,Conditions,WindDirDegrees,DateUTC
12:53 AM,50.0,45.0,83,30.04,10.0,South,3.5,-,N/A,,Clear,170,2011-11-18 08:53:00
1:53 AM,48.0,43.0,83,30.04,10.0,South,4.6,-,N/A,,Clear,170,2011-11-18 09:53:00
2:53 AM,48.9,44.1,83,30.03,10.0,SSW,4.6,-,N/A,,Clear,200,2011-11-18 10:53:00
3:53 AM,48.0,44.1,86,30.03,10.0,South,4.6,-,N/A,,Clear,170,2011-11-18 11:53:00
4:53 AM,46.9,44.1,90,30.02,10.0,South,4.6,-,N/A,,Clear,170,2011-11-18 12:53:00
5:53 AM,46.9,44.1,90,30.01,10.0,South,4.6,-,N/A,,Clear,190,2011-11-18 13:53:00
6:53 AM,46.4,42.8,87,30.00,10.0,South,4.6,-,N/A,,Clear,180,2011-11-18 14:53:00
7:53 AM,50.0,44.1,80,30.01,10.0,South,5.8,-,N/A,,Clear,190,2011-11-18 15:53:00
8:53 AM,54.0,45.0,72,30.01,10.0,SSW,10.4,-,N/A,,Clear,200,2011-11-18 16:53:00
9:53 AM,55.9,44.1,64,30.00,10.0,SSW,12.7,18.4,N/A,,Clear,200,2011-11-18 17:53:00
10:53 AM,59.0,43.0,55,29.99,10.0,SW,13.8,21.9,N/A,,Partly Cloudy,220,2011-11-18 18:53:00
11:53 AM,59.0,42.1,53,29.96,10.0,SW,17.3,24.2,N/A,,Scattered Clouds,230,2011-11-18 19:53:00
12:53 PM,53.6,46.4,77,29.95,6.0,SSW,11.5,-,N/A,Rain,Light Rain,210,2011-11-18 20:53:00
1:53 PM,52.0,48.9,89,29.94,7.0,South,4.6,-,0.02,Rain,Light Rain,170,2011-11-18 21:53:00
2:53 PM,54.0,48.9,83,29.92,10.0,SSW,9.2,-,0.01,,Scattered Clouds,200,2011-11-18 22:53:00
3:53 PM,54.0,48.0,80,29.91,10.0,SSW,9.2,19.6,N/A,,Overcast,210,2011-11-18 23:53:00
4:53 PM,52.0,46.9,83,29.91,10.0,SSW,9.2,-,0.00,,Overcast,210,2011-11-19 00:53:00
5:53 PM,50.0,46.0,86,29.93,10.0,SSW,8.1,-,N/A,,Partly Cloudy,200,2011-11-19 01:53:00
6:53 PM,50.0,45.0,83,29.94,10.0,SSW,8.1,-,N/A,,Clear,210,2011-11-19 02:53:00
7:53 PM,48.2,44.6,87,29.95,10.0,SSW,5.8,-,N/A,,Partly Cloudy,200,2011-11-19 03:53:00
8:53 PM,48.0,44.1,86,29.95,10.0,SSW,6.9,-,N/A,,Clear,210,2011-11-19 04:53:00
9:53 PM,48.0,43.0,83,29.95,10.0,SW,8.1,-,N/A,,Clear,220,2011-11-19 05:53:00
10:53 PM,46.0,42.1,86,29.96,10.0,SSE,3.5,-,N/A,,Clear,160,2011-11-19 06:53:00
11:53 PM,43.0,41.0,93,29.97,10.0,Calm,Calm,-,N/A,,Clear,0,2011-11-19 07:53:00